Location: Darmstadt
(49.8706°N, 8.6494°E)
Time: 07:32:32
(UTC+01:00)

Cosmos 1697 Rocket - Pass Details

Date: 31 October 2020
Orbit: 831 x 845 km, 71.0° (Epoch: 03 December)

Event Time Altitude Azimuth Distance (km) Brightness Sun altitude
Rises 19:17:42 0° 219° (SW) 3,368 6.3 -22.0°
Reaches altitude 10° 19:20:10 10° 223° (SW) 2,439 5.6 -22.4°
Maximum altitude 19:25:41 60° 303° (WNW) 954 3.1 -23.3°
Enters shadow 19:30:36 14° 22° (NNE) 2,215 4.7 -24.1°
